Volver al catálogo

SL-14 R/B

ActivoPO
NORAD 22627·ROCKET BODY·🇷🇺 Russia

Lanzado Apr 16, 1993 desde Plesetsk Cosmodrome

Loading…

Próximos Pases (próximas 24 horas)

TLE

ActualizadoSource: Space-Track

Época: Sep 14, 2026, 14:16 UTC

1 22627U 93024B   26257.59508763  .00000286  00000-0  34396-4 0  9997
2 22627  82.5231 201.7543 0024206  82.0839 278.3120 14.80196251801108

Sigue SL-14 R/B en tiempo real con AllMySat

Download on the App Store